loading
DOY 171 | 2024-06-19T23:02:02Z

THOR ABLESTAR DEB, 404

Orbit data source: Space-Track

THOR ABLESTAR DEB, 404 is space debris in LEO originally from a launch on Thu, 29 Jun 1961 UTC launched from the Air Force Eastern Test Range (AFETR). Debris objects in space refer to the collection of defunct objects orbiting the Earth. Examples of debris include non-operational satellites, rocket bodies, and fragments generated from explosions, collisions, or faulty payload assembly.

Loading next visibility...
Loading greatness...
THOR ABLESTAR DEB details
NORAD ID404
COSPAR ID
1961-015ED
Orbit
LEO
Last TLE update12 hours ago
Origin
Flag of USUSAF SSD (US)
ManufacturerUnknown
BusUnknown
MotorUnknown
MassWet unknown, Dry mass unknown
Launch date (UTC)
1961-06-29 (63 years ago)
Launch vehicleUnknown
Launch site
Air Force Eastern Test Range (AFETR)
Object type
Payload
Rocket body
Debris
Radar Cross SectionMedium (>0.1 m² and <1 m²)
Predictive object data (real-time)
Latitude65.90672°
Longitude-145.52329°
Altitude1,404.187 km
Speed7.118 km/s
Apparent Right ascension20h 59m 36s
Apparent Declination21° 21' 15"
Sunlit
Object is in daylight
Predictive observer data (real-time)
Local Sidereal Time09:56:11
Azimuth14.847° NNE
Elevation-27.323°
Doppler factor1
Orbital elements
Apogee1,725.16 km
Perigee862.642 km
Semi-major axis7,672.038 km
Eccentricity0.0562118
Inclination66.4682°
RAAN189.5329°
Arg. of periapsis202.3469°
True anomaly157.75385°
Mean anomaly155.2168°
Mean motion3.22981 °/min
BSTAR0.00094028
Period111.46 mins
Definitive object data (Epoch: 2024-06-19T11:20:37.62Z)
Latitude-0.00009°
Longitude111.19755°
Altitude1,692.96 km
Speed6.846 km/s
True Right ascension12h 38m 07s
True Declination0° 00' 00"
Sunlit
Object was in daylight at TLE epoch
TLE from 12 hours ago
0 THOR ABLESTAR DEB
1 00404U 61015ED  24171.47265765  .00000449  00000-0  94028-3 0  9991
2 00404  66.4682 189.5329 0562118 202.3469 155.2168 12.91544307949262
Epoch: 2024-06-19T11:20Z
No data available

THOR ABLESTAR DEB Visibility forecast

Observer location: 39.9160978°, -105.1181434, 0m alt.

THOR ABLESTAR DEB is not visible in the next 10 days
Span
Click to sort rows by Start time (UTC) header in descending order
Start Az.
Max El. time (UTC)
Max El. Az.
Max El.
End time (UTC)
End Az.